Theta_e
302 303 304 302 302 303 301 301 298 300 301 305 309 310 314 319 319 320 322 323 325 326 326 330 332 329 326 327 327 326 323 323 322 323 322 321 321 320 321 321 320 320 318 317
298 301 301 298 300 300 300 300 299 299 299 306 310 312 317 318 317 319 319 321 326 328 329 330 333 327 325 326 325 325 323 322 322 322 320 320 321 321 322 321 320 319 317 316
295 300 299 295 300 301 302 303 302 298 303 308 310 315 316 319 320 320 321 322 326 327 329 331 334 328 326 326 325 324 323 322 322 322 320 320 320 320 320 320 322 320 319 317
294 297 288 300 306 305 303 304 306 306 307 315 316 317 320 320 320 320 322 323 325 328 335 331 336 330 329 328 324 323 322 320 320 321 320 320 320 320 321 321 322 320 316 319
292 292 297 299 303 303 302 302 307 313 315 316 316 315 316 317 319 321 324 326 327 328 332 333 334 332 327 326 324 323 320 319 320 320 319 319 318 320 321 321 318 319 320 319
294 290 287 299 305 312 311 299 315 315 313 311 312 305 310 315 316 321 324 326 328 328 331 332 333 329 329 325 322 320 320 319 320 320 320 319 320 320 321 320 316 317 317 319
292 290 294 303 305 312 294 299 312 312 310 309 308 310 315 315 316 322 324 326 328 328 331 331 338 331 325 323 321 322 323 321 320 321 321 322 322 321 320 317 319 318 317 320
295 292 288 309 309 302 310 312 310 309 309 308 309 309 311 312 315 319 321 323 327 326 329 329 331 326 324 322 323 324 323 320 321 322 320 321 320 319 318 319 318 317 318 317
298 297 311 310 310 315 315 312 310 310 310 309 307 307 308 310 314 317 321 323 326 326 325 326 329 330 324 323 323 323 321 319 320 320 321 320 319 318 316 319 314 312 311 309
300 303 307 312 312 313 310 307 312 310 309 309 307 307 307 310 312 314 319 322 324 324 324 325 324 326 325 323 324 321 319 318 319 318 317 319 318 317 314 312 311 311 314 312
297 302 304 307 309 310 311 310 310 311 308 307 307 305 307 309 311 312 317 324 324 323 323 323 322 324 324 323 322 319 318 319 318 317 317 318 308 308 312 303 303 314 311 305
294 302 301 301 306 305 303 304 305 305 304 305 305 306 307 307 310 311 314 324 322 321 321 323 321 322 323 323 322 319 318 318 316 314 317 314 307 302 293 295 294 294 295 301
299 303 303 303 304 303 302 304 304 305 305 304 306 307 307 308 310 311 315 317 322 319 318 321 319 321 324 323 321 320 318 316 314 314 315 312 312 310 301 297 294 293 293 293
302 302 299 300 301 304 305 306 306 305 306 307 307 307 308 308 311 311 315 319 323 320 318 319 319 320 322 321 320 319 318 308 315 316 314 312 313 311 310 305 303 300 295 297
300 301 301 302 303 303 305 305 304 302 304 305 306 306 308 308 309 311 316 319 322 321 319 317 319 320 322 322 320 319 318 316 315 315 312 311 313 312 309 309 308 305 302 296
300 300 299 299 299 301 302 303 302 302 304 304 305 307 308 309 310 311 314 317 318 318 318 315 319 320 321 321 320 319 316 308 310 313 312 313 313 311 311 311 309 308 306 302
296 295 299 298 298 299 300 302 303 303 304 304 306 308 308 309 309 311 314 317 317 317 317 315 319 321 321 322 320 316 315 313 308 313 312 312 312 310 311 308 309 307 301 296
301 302 301 301 301 300 300 302 303 303 304 305 308 308 311 312 309 311 314 319 315 316 317 318 320 321 321 319 316 315 313 312 313 313 311 312 312 312 311 309 308 307 303 299
302 301 301 301 302 302 304 304 305 306 307 308 309 309 311 313 313 313 317 313 313 312 314 318 307 315 317 314 313 313 312 312 312 311 312 306 311 311 310 309 307 304 303 302
302 302 302 301 303 304 303 305 306 307 309 310 309 310 312 312 314 316 312 311 312 314 317 314 315 317 317 310 305 312 312 312 311 311 311 311 310 308 304 299 303 303 303 302
300 301 302 302 302 304 305 306 306 306 308 309 308 310 311 316 315 312 310 309 311 311 312 307 315 316 315 310 309 311 311 312 310 310 310 309 309 308 305 304 303 303 302 302
302 300 301 302 300 301 303 305 306 307 309 309 311 312 310 309 309 310 312 310 310 301 312 314 316 305 309 300 312 311 313 311 309 309 308 310 308 305 304 304 303 302 301 300
302 302 300 300 299 299 302 304 306 308 310 311 311 308 308 309 310 307 305 309 312 305 313 312 293 289 291 312 311 311 310 310 310 310 310 307 305 304 304 303 302 300 299 298
300 300 299 300 301 300 302 305 309 310 310 311 309 309 307 306 307 310 309 301 297 301 309 303 295 291 291 311 311 310 310 310 309 307 305 298 304 303 303 302 300 298 297 296
299 299 299 299 300 303 308 311 311 311 312 310 308 308 308 309 308 309 309 306 296 306 305 289 289 291 308 309 309 308 308 307 305 304 305 305 303 302 300 299 298 298 297 297
297 298 299 301 304 306 311 313 309 311 309 307 308 308 307 307 308 310 311 306 309 302 308 307 308 307 310 309 306 304 303 303 304 304 303 303 301 299 298 298 297 297 297 297
299 297 301 303 306 311 314 314 311 308 307 308 307 309 309 308 308 309 304 309 308 308 308 308 309 305 306 305 305 304 305 304 300 303 302 301 299 298 298 298 298 298 297 297
Wind_Speed
16 20 21 21 19 15 18 16 16 17 20 17 15 14 10 15 16 15 15 19 7 11 26 16 17 13 15 14 14 14 14 12 12 11 10 9 8 8 6 6 5 6 6 5
14 17 19 22 22 21 20 20 21 20 22 16 14 10 14 13 15 12 14 16 18 13 15 11 17 18 17 16 13 15 13 11 11 11 10 8 7 7 6 5 4 4 4 4
16 16 18 19 17 22 22 20 20 19 17 13 9 14 14 14 15 15 16 18 17 16 17 26 16 17 19 17 13 15 12 11 11 9 9 8 8 7 6 5 4 4 4 3
13 14 20 13 15 18 21 20 11 14 7 11 14 13 16 14 13 14 16 16 17 13 10 7 10 13 16 13 15 15 13 12 12 11 10 9 8 7 6 5 5 4 5 4
13 14 18 22 15 15 13 14 10 8 11 12 8 7 13 14 14 14 15 15 14 17 17 12 17 19 18 15 17 15 14 12 12 12 11 10 9 7 5 5 4 4 4 4
11 15 18 13 17 11 20 13 10 8 8 9 8 5 7 14 14 14 14 15 13 18 19 9 9 15 18 15 16 16 13 13 11 10 9 10 9 7 6 4 5 4 6 5
13 14 13 14 20 7 6 5 12 8 6 9 7 7 9 12 12 13 11 14 12 15 15 17 5 12 15 13 14 13 12 10 10 10 8 9 7 6 6 5 4 5 5 4
15 19 20 12 15 9 6 6 4 3 8 7 6 7 9 11 11 12 12 13 13 11 12 12 4 10 12 13 12 12 11 13 11 8 6 7 9 7 6 5 4 5 5 6
3 9 7 7 7 12 14 4 4 1 5 5 6 8 11 10 11 11 14 9 9 10 10 9 7 10 13 12 12 11 10 10 9 9 6 10 8 6 4 5 5 7 4 4
9 12 12 6 4 3 6 15 16 4 6 7 7 10 12 11 10 12 10 8 9 9 9 6 2 3 7 12 10 10 10 10 8 7 9 9 7 5 6 7 8 6 2 1
16 16 13 10 13 12 8 9 8 13 11 11 10 12 12 11 12 12 12 9 6 8 6 6 2 4 8 13 13 12 10 9 9 7 9 7 6 3 5 4 4 4 4 5
13 13 11 14 15 15 14 14 16 14 14 15 14 13 12 11 12 13 14 10 6 8 8 7 5 5 8 12 13 10 11 9 8 8 8 8 7 6 13 8 5 9 7 9
16 17 16 18 16 19 17 16 17 16 15 15 12 11 13 13 13 13 15 12 8 7 8 7 7 8 9 12 14 13 11 12 10 9 9 9 9 8 7 4 9 11 13 12
19 19 19 21 16 17 16 15 13 16 15 13 13 13 14 15 15 13 13 10 9 7 9 7 9 11 12 14 14 13 10 11 10 9 8 8 8 8 8 6 6 5 2 3
22 21 21 21 21 21 18 18 18 18 16 16 14 15 15 15 14 14 8 8 9 9 9 7 11 11 14 15 16 14 9 10 9 8 8 10 9 9 8 8 7 8 6 3
22 21 20 20 22 22 21 21 21 18 16 16 16 15 15 14 14 15 6 8 10 9 8 8 10 12 14 14 13 11 10 11 8 8 8 8 8 7 7 7 4 7 4 6
21 20 26 21 19 19 23 19 16 15 15 15 14 14 16 15 14 13 8 5 8 6 7 9 11 11 12 12 13 10 8 8 8 8 8 7 10 9 8 8 5 7 8 4
5 10 10 21 20 16 19 22 16 15 14 14 14 16 13 13 12 12 8 7 4 7 9 10 10 16 16 17 13 10 9 8 7 7 7 5 7 7 6 6 5 5 8 5
10 14 13 15 11 19 19 14 14 12 11 10 18 17 15 16 10 7 4 6 9 10 9 10 10 15 14 14 12 11 11 10 8 8 5 10 8 6 6 4 5 6 5 5
16 14 13 18 18 21 16 15 17 14 14 14 15 15 16 11 7 3 6 9 9 7 5 12 14 14 13 11 13 10 11 11 8 10 8 8 9 8 6 8 6 7 6 5
17 15 21 17 12 17 15 13 15 15 15 17 13 19 11 6 4 6 6 5 4 9 11 10 10 10 10 10 9 9 10 7 10 7 9 9 7 6 7 6 7 7 6 5
14 12 15 15 12 14 17 15 14 16 18 15 18 4 2 3 7 8 8 10 10 10 12 6 6 10 9 10 6 9 8 10 8 8 7 7 8 8 7 7 6 6 6 5
10 11 10 11 13 14 15 16 17 18 18 17 6 6 4 2 5 11 13 10 11 10 9 8 8 9 8 1 0 10 10 9 8 8 9 9 9 7 7 7 8 8 5 6
15 14 12 12 12 13 15 16 16 16 13 10 9 9 9 8 7 8 11 14 10 5 8 8 8 8 1 2 11 9 9 10 10 10 9 10 9 8 7 7 7 6 5 7
12 13 12 12 13 12 14 14 11 4 13 13 12 10 11 8 10 7 8 8 13 14 8 8 8 5 1 4 12 9 9 10 9 9 9 8 8 9 9 8 7 6 6 7
12 9 9 13 11 11 10 6 6 8 9 11 10 10 9 9 7 8 9 10 10 11 10 4 3 1 2 10 12 14 12 9 10 10 10 10 10 9 8 7 7 7 7 6
11 11 9 9 10 11 7 9 11 10 10 10 12 10 12 11 9 10 10 9 10 9 6 3 1 1 12 14 13 11 10 10 11 10 10 9 9 8 8 7 6 7 8 7
Wind_Direction
277 284 292 291 289 288 285 281 274 284 286 298 315 329 22 25 5 359 359 344 38 235 235 181 171 179 158 162 175 165 164 167 168 161 164 170 174 176 186 198 209 187 185 201
280 281 283 283 285 284 279 277 277 281 280 291 291 302 39 19 347 10 355 341 359 35 107 241 190 158 155 167 171 155 164 172 167 163 162 171 175 172 192 192 210 210 203 219
271 281 282 269 264 266 267 269 269 266 273 291 -0 46 29 26 26 1 359 345 345 336 183 203 187 167 156 155 154 152 160 162 162 165 172 172 175 182 182 195 190 212 247 244
268 277 267 267 274 280 272 270 303 290 290 50 44 39 60 35 18 357 348 347 336 332 339 199 174 157 148 157 143 154 161 160 168 172 176 173 178 189 176 171 194 208 231 230
251 253 269 273 271 279 279 267 265 335 47 46 26 355 67 21 8 343 356 341 337 328 319 220 185 147 152 149 149 156 161 168 174 171 176 173 181 180 159 168 199 215 224 239
252 259 260 278 267 344 355 238 70 58 56 43 359 300 24 3 355 351 348 339 344 329 317 334 184 153 143 147 153 159 170 171 161 179 178 173 177 161 165 174 217 218 212 212
230 247 271 286 301 99 87 280 70 71 63 53 34 8 336 340 349 347 349 340 347 334 324 320 136 134 133 154 161 155 165 162 165 171 179 163 150 147 164 203 232 201 277 226
229 239 250 6 318 300 60 100 120 93 75 55 25 341 335 340 340 340 344 341 343 335 330 328 297 127 145 164 154 157 158 162 170 162 181 142 138 158 181 198 190 253 228 243
140 272 344 334 348 357 343 316 206 94 56 25 359 340 331 329 334 337 325 347 340 338 325 325 296 173 162 159 154 147 139 151 161 160 176 139 145 170 172 179 244 221 207 117
299 269 283 233 355 348 35 335 301 66 352 337 332 329 318 317 325 315 317 327 333 331 320 310 44 146 152 150 152 164 143 157 148 165 137 146 160 162 206 197 213 236 104 111
285 288 283 198 229 256 199 231 273 303 319 314 316 313 309 310 312 306 303 307 329 303 311 269 197 174 159 160 157 159 157 131 147 157 149 150 61 13 117 61 353 90 65 57
281 304 325 307 318 323 312 312 312 314 302 297 306 304 308 309 300 296 294 306 291 299 302 264 208 205 175 162 157 153 138 145 163 151 156 145 135 93 40 66 48 69 102 107
283 292 292 289 284 286 285 286 287 289 288 296 296 298 295 289 289 286 283 285 266 274 293 260 210 211 191 167 163 163 157 162 151 169 173 179 171 155 132 78 75 69 88 95
278 292 290 287 290 293 296 288 286 287 283 280 283 282 279 275 275 277 269 299 286 245 278 254 216 210 182 162 154 162 161 161 164 185 173 185 170 171 148 152 144 125 142 137
268 268 269 271 273 275 278 282 280 276 276 274 271 267 268 273 277 276 279 312 278 249 276 262 227 198 181 167 165 161 154 175 172 173 173 197 175 157 145 177 158 139 145 241
271 270 268 273 284 258 253 250 253 256 260 261 260 261 266 272 271 274 282 295 246 228 253 273 224 179 173 169 160 148 175 170 182 167 184 204 148 155 145 144 179 163 129 45
279 281 280 256 251 262 280 266 249 253 257 262 268 271 268 263 270 268 270 274 240 232 232 258 207 170 154 156 168 161 166 162 175 187 165 205 141 170 149 157 138 117 107 113
351 309 333 309 316 281 249 261 260 262 261 273 278 264 272 269 256 262 271 260 227 235 227 221 206 174 176 170 153 158 147 165 184 170 186 144 119 130 118 120 162 152 129 132
310 308 304 283 286 277 273 279 287 288 282 286 266 263 264 263 253 259 255 184 229 231 226 203 166 145 161 146 154 143 155 168 185 161 142 112 125 123 112 137 100 77 77 126
314 305 274 240 277 282 282 270 274 267 273 276 276 287 263 258 263 223 154 214 224 232 186 137 134 148 157 160 130 144 164 178 152 117 134 114 101 91 102 63 76 91 71 65
287 286 293 284 290 299 293 274 278 276 270 266 277 276 267 303 138 163 182 176 136 125 113 114 140 160 155 130 150 156 176 129 116 125 108 110 133 128 95 83 75 72 68 52
274 272 265 277 289 280 277 275 272 266 260 266 262 272 242 200 176 181 157 140 121 112 102 106 171 152 131 138 174 153 117 108 109 111 119 128 105 97 97 95 91 81 70 61
279 285 279 269 270 271 264 259 257 252 250 254 183 156 151 166 167 144 126 120 111 117 123 180 96 73 84 127 104 105 106 112 113 106 97 95 94 95 92 88 75 67 47 73
302 293 276 268 266 267 256 248 249 248 252 148 120 127 125 112 91 104 106 98 123 177 157 120 84 86 157 302 109 106 100 96 96 94 91 94 92 101 106 96 87 97 100 64
276 275 271 266 260 259 240 244 241 185 134 124 120 106 102 96 98 101 92 111 117 131 107 83 84 94 91 110 100 107 105 101 104 103 98 104 102 91 77 71 73 77 67 65
282 271 263 256 255 252 245 197 147 133 132 128 123 121 114 105 119 116 103 103 115 120 117 111 113 152 2 118 96 93 94 103 104 106 104 93 92 100 110 111 92 72 67 58
276 257 251 240 233 246 261 147 136 126 124 126 129 134 135 141 148 123 110 121 134 138 142 132 175 177 104 100 103 104 97 92 90 93 97 100 96 96 97 92 89 88 82 58